Location: Waco, TX
(31.5480°N, 97.1670°W)
Time: 03:00:32
(UTC-05:00)

ISS - Pass Details

Date: 08 May 2021
Orbit: 417 x 422 km, 51.6° (Epoch: 15 May)

Event Time Altitude Azimuth Distance (km) Brightness Sun altitude
Rises 06:47:18 0° 334° (NNW) 2,369 0.0 1.2°
Reaches altitude 10° 06:50:35 10° 9° (N) 1,503 -0.5 1.9°
Maximum altitude 06:51:52 12° 31° (NNE) 1,403 -0.2 2.1°
Drops below altitude 10° 06:53:09 10° 54° (NE) 1,501 0.8 2.4°
Sets 06:56:25 0° 88° (E) 2,363 1.9 3.0°
